Date,TemperatureHighF,TemperatureAvgF,TemperatureLowF,DewpointHighF,DewpointAvgF,DewpointLowF,HumidityHigh,HumidityAvg,HumidityLow,PressureMaxIn,PressureMinIn,WindSpeedMaxMPH,WindSpeedAvgMPH,GustSpeedMaxMPH,PrecipitationSumIn
2014-1-1,55,37,19,36,27,14,79,68,47,30.44,29.98,29,6,29,0.00
2014-1-2,40,25,15,22,16,9,85,69,47,30.66,30.44,21,3,21,0.00
2014-1-3,49,35,22,25,21,16,86,59,36,30.58,30.00,24,7,27,0.00
2014-1-4,58,42,26,36,28,20,79,60,40,30.05,29.81,25,7,25,0.00
2014-1-5,26,18,11,21,10,1,88,71,56,30.80,30.04,27,9,27,0.00
2014-1-6,26,15,6,7,2,-3,84,57,34,30.93,30.66,16,3,16,0.00
2014-1-7,48,33,21,19,13,7,64,45,30,30.66,30.31,24,6,24,0.00
2014-1-8,39,34,31,35,26,12,95,74,41,30.37,30.24,18,4,18,0.07
2014-1-9,37,34,32,36,33,31,97,96,94,30.36,30.11,14,2,14,0.03
2014-1-10,58,45,33,53,38,26,99,80,43,30.11,29.75,19,4,19,0.01
2014-1-11,62,45,32,29,26,22,78,51,23,30.17,29.94,21,3,21,0.00
2014-1-12,73,57,34,40,32,24,71,39,24,30.06,29.69,29,7,29,0.00
2014-1-13,58,47,35,34,25,17,57,43,22,30.12,29.87,16,5,20,0.00
2014-1-14,54,42,29,33,20,14,65,42,29,30.47,30.04,25,4,25,0.00
2014-1-15,55,41,24,26,24,19,84,52,30,30.48,30.09,12,2,14,0.00
2014-1-16,59,48,33,30,19,5,72,37,14,30.34,30.07,26,6,26,0.00
2014-1-17,49,39,27,19,15,12,59,39,22,30.46,30.21,20,4,20,0.00
2014-1-18,62,48,36,28,23,18,53,38,25,30.32,30.10,22,4,22,0.00
2014-1-19,65,45,24,28,24,20,84,49,22,30.36,30.05,23,3,23,0.00
2014-1-20,64,48,29,31,26,21,80,45,22,30.43,29.96,22,4,24,0.00
2014-1-21,43,30,20,22,10,4,55,42,27,30.62,30.29,30,4,30,0.00
2014-1-22,50,35,21,25,18,12,75,52,36,30.47,30.24,14,3,19,0.00
2014-1-23,35,20,10,18,0,-8,62,42,28,30.98,30.46,24,6,26,0.00
2014-1-24,43,26,5,14,6,-4,84,46,23,30.97,30.26,16,4,23,0.00
2014-1-25,66,50,31,36,29,12,76,46,30,30.26,30.05,13,2,18,0.00
2014-1-26,68,47,28,35,29,23,89,55,23,30.15,29.77,33,2,33,0.00
2014-1-27,39,24,18,23,-2,-12,58,32,20,30.61,30.14,29,8,33,0.00
2014-1-28,30,20,13,9,6,-8,80,57,30,30.73,30.57,17,3,17,0.00
2014-1-29,48,30,12,16,9,4,78,47,17,30.57,30.15,24,4,24,0.00
2014-1-30,54,41,31,36,22,13,76,47,31,30.15,29.88,19,6,26,0.00
2014-1-31,49,41,30,46,38,28,95,89,71,29.97,29.83,12,3,15,0.00
2014-2-1,38,31,27,28,25,23,95,81,62,30.33,29.94,17,5,17,0.00
2014-2-2,30,25,19,24,19,13,90,76,62,30.48,30.29,22,5,22,0.03
2014-2-3,32,25,15,27,20,11,86,79,71,30.49,30.19,9,1,9,0.03
2014-2-4,33,31,25,32,28,21,96,91,80,30.35,30.00,25,3,25,0.16
2014-2-5,25,13,9,21,7,3,87,77,71,30.82,30.35,27,9,27,0.00
2014-2-6,17,12,7,10,7,3,84,77,71,30.83,30.63,16,4,16,0.00
2014-2-7,27,21,15,22,16,9,88,80,74,30.62,30.34,11,3,12,0.00
2014-2-8,32,29,25,30,27,22,94,91,88,30.35,30.18,15,2,15,0.01
2014-2-9,32,30,25,31,28,23,96,93,84,30.41,30.21,16,4,16,0.00
2014-2-10,28,22,18,23,18,14,93,82,70,30.55,30.41,17,5,17,0.00
2014-2-11,37,26,17,22,17,12,85,70,45,30.59,30.38,16,3,16,0.01
2014-2-12,48,33,20,32,24,16,90,72,51,30.38,30.16,17,2,17,0.00
2014-2-13,63,40,21,36,29,19,95,70,36,30.19,29.91,15,2,15,0.00
2014-2-14,61,47,34,37,32,24,83,59,27,30.23,29.77,28,4,28,0.00
2014-2-15,66,43,29,33,29,25,87,62,26,30.23,30.02,21,3,23,0.00
2014-2-16,71,54,36,55,40,30,89,63,32,30.20,29.85,25,4,25,0.00
2014-2-17,64,54,34,56,35,25,92,52,24,30.23,29.84,23,6,30,0.00
2014-2-18,75,52,28,38,31,23,84,51,23,30.19,29.88,27,4,27,0.00
2014-2-19,63,57,47,60,45,28,96,67,33,30.06,29.59,16,6,21,0.00
2014-2-20,63,53,35,59,35,13,93,54,21,30.19,29.50,27,9,32,0.00
2014-2-21,65,44,24,27,21,14,80,45,18,30.23,30.04,27,3,27,0.00
2014-2-22,71,53,42,32,30,25,63,43,20,30.07,29.88,18,3,18,0.00
2014-2-23,56,45,35,32,28,21,76,52,33,30.32,29.92,21,5,21,0.00
2014-2-24,48,40,0,34,28,0,66,60,54,30.32,30.15,10,2,10,0.00
2014-2-25,45,38,28,34,24,17,79,58,44,30.49,30.25,24,5,24,0.00
2014-2-26,36,25,16,17,11,8,74,56,37,30.55,30.29,24,4,28,0.00
2014-2-27,56,38,17,24,18,12,82,48,22,30.30,29.93,18,2,18,0.00
2014-2-28,66,51,41,42,36,24,79,58,40,30.02,29.74,17,4,21,0.00
2014-3-1,45,38,22,43,37,20,97,94,80,30.30,30.02,23,4,23,0.01
2014-3-2,22,13,9,20,10,4,93,87,83,30.65,30.30,23,8,25,0.00
2014-3-3,24,14,5,13,7,1,85,75,59,30.75,30.49,19,4,20,0.01
2014-3-4,48,30,15,30,22,12,89,71,49,30.49,30.13,11,2,16,0.10
2014-3-5,49,38,30,37,31,27,94,78,56,30.39,30.14,15,3,17,0.16
2014-3-6,54,40,33,39,34,30,93,79,55,30.39,30.11,9,3,12,0.00
2014-3-7,66,50,38,43,38,33,87,66,39,30.10,29.84,19,6,29,0.00
2014-3-8,50,37,32,39,31,27,86,80,67,30.48,29.98,25,7,25,0.00
2014-3-9,62,45,28,35,29,24,85,57,31,30.50,30.24,7,2,12,0.00
2014-3-10,76,56,35,42,33,28,88,50,18,30.24,29.85,22,3,22,0.00
2014-3-11,80,62,47,53,45,35,87,57,21,30.04,29.52,33,9,33,0.00
2014-3-12,57,45,35,36,28,22,80,55,27,30.42,30.03,29,7,33,0.00
2014-3-13,68,49,28,28,24,19,87,46,17,30.37,30.07,20,3,20,0.00
2014-3-14,72,58,48,37,31,26,64,38,21,30.08,30.01,20,3,20,0.00
2014-3-15,62,52,45,55,49,36,96,87,65,30.07,29.82,23,2,23,0.54
2014-3-16,53,41,35,52,34,25,96,77,49,30.25,29.92,34,10,34,0.51
2014-3-17,59,42,24,34,28,22,94,61,34,30.25,29.68,22,3,22,0.00
2014-3-18,73,57,45,39,32,25,57,41,19,30.05,29.53,41,9,41,0.01
2014-3-19,59,46,37,33,30,26,77,56,28,30.35,30.05,18,6,27,0.00
2014-3-20,72,52,29,33,30,26,92,51,20,30.33,30.02,16,4,21,0.00
2014-3-21,74,62,52,50,38,30,58,42,25,30.10,29.88,16,5,20,0.00
2014-3-22,57,50,42,35,30,26,66,47,35,30.36,30.10,23,5,23,0.00
2014-3-23,50,40,31,28,21,12,75,46,35,30.60,30.36,24,5,24,0.00
2014-3-24,64,45,27,33,29,24,90,57,29,30.41,30.17,27,4,27,0.00
2014-3-25,57,44,29,31,27,25,87,55,30,30.54,30.31,10,2,13,0.00
2014-3-26,54,44,37,48,35,27,91,74,51,30.31,29.85,26,6,26,0.30
2014-3-27,80,66,54,58,47,28,90,59,16,29.87,29.66,23,8,37,0.00
2014-3-28,60,51,43,42,37,35,74,60,45,30.24,29.87,19,5,19,0.00
2014-3-29,71,53,33,40,33,24,92,54,19,30.42,30.24,12,1,12,0.00
2014-3-30,77,62,44,44,36,31,66,40,23,30.31,29.92,24,7,29,0.00
2014-3-31,83,68,56,57,42,15,82,47,9,30.01,29.81,30,6,30,0.00
2014-4-1,67,57,50,52,38,28,76,51,26,30.09,29.88,23,4,23,0.00
2014-4-2,82,70,55,68,62,48,94,77,59,29.89,29.66,23,6,23,0.00
2014-4-3,78,69,45,67,55,34,89,64,22,30.04,29.64,25,7,34,0.00
2014-4-4,61,49,39,34,29,22,81,51,22,30.29,30.04,25,6,25,0.00
2014-4-5,67,52,38,40,30,23,77,45,19,30.26,30.04,16,3,16,0.00
2014-4-6,51,47,43,46,42,38,94,84,73,30.16,29.91,10,1,10,0.18
2014-4-7,65,53,46,49,44,38,97,74,45,30.09,29.90,33,3,33,0.24
2014-4-8,67,55,44,40,35,29,75,52,25,30.25,30.08,22,7,29,0.00
2014-4-9,80,60,36,46,40,34,92,53,25,30.28,29.96,23,4,23,0.00
2014-4-10,86,72,61,49,45,41,55,40,22,29.97,29.83,26,5,26,0.00
2014-4-11,80,68,52,60,55,46,93,67,49,30.04,29.92,18,3,18,0.00
2014-4-12,82,72,62,64,61,59,87,70,52,29.94,29.68,27,8,27,0.00
2014-4-13,85,68,41,64,57,34,85,69,41,29.95,29.42,35,10,35,0.04
2014-4-14,51,42,33,34,27,17,87,60,29,30.40,29.94,28,9,28,0.00
2014-4-15,63,48,30,26,22,16,80,41,17,30.41,30.15,22,2,22,0.00
2014-4-16,68,56,45,37,32,26,55,42,28,30.15,29.98,30,8,30,0.00
2014-4-17,60,53,47,48,41,37,73,64,54,30.35,30.11,15,2,15,0.00
2014-4-18,75,58,41,47,43,38,88,60,34,30.38,30.19,10,2,14,0.00
2014-4-19,77,62,45,53,49,42,91,63,41,30.27,30.12,21,3,21,0.00
2014-4-20,74,63,56,59,55,50,90,77,54,30.18,30.03,20,3,20,0.01
2014-4-21,77,65,58,63,60,56,96,84,55,30.11,30.02,16,2,16,0.08
2014-4-22,81,67,55,56,46,37,97,56,21,30.20,29.99,11,2,11,0.01
2014-4-23,84,69,48,63,53,42,86,59,38,30.01,29.71,23,5,28,0.28
2014-4-24,74,67,53,63,52,35,88,61,26,30.03,29.67,28,7,28,0.00
2014-4-25,82,63,42,46,42,29,94,54,25,30.11,29.88,25,4,25,0.00
2014-4-26,88,69,62,65,51,41,76,54,39,29.88,29.58,27,6,29,0.00
2014-4-27,82,74,66,67,49,28,93,50,15,29.60,29.37,36,6,36,0.11
2014-4-28,73,61,49,48,41,36,86,50,28,29.77,29.45,27,4,27,0.00
2014-4-29,58,56,51,41,36,34,56,49,44,30.08,29.77,27,7,27,0.00
2014-4-30,61,52,42,36,32,26,74,49,27,30.25,30.07,18,6,23,0.00
2014-5-1,69,54,39,39,32,26,80,46,22,30.27,30.10,19,4,19,0.00
2014-5-2,74,58,39,42,35,26,88,50,18,30.14,30.00,14,2,14,0.00
2014-5-3,88,66,40,41,38,32,92,45,15,30.09,29.97,16,3,16,0.00
2014-5-4,96,78,59,45,40,30,58,30,11,30.00,29.82,26,5,26,0.00
2014-5-5,75,72,70,44,43,42,38,35,31,29.85,29.82,16,5,16,0.00
2014-5-6,90,78,66,65,61,56,76,56,41,29.74,29.61,9,6,27,0.00
2014-5-7,86,75,67,68,64,62,90,71,48,29.80,29.68,11,7,28,0.11
2014-5-8,81,71,63,66,63,60,92,77,57,29.88,29.73,7,5,19,0.13
2014-5-9,80,69,58,64,57,50,97,69,36,29.99,29.82,6,2,15,0.00
2014-5-10,89,73,56,67,62,53,94,71,42,29.90,29.74,20,6,24,0.00
2014-5-11,85,77,71,68,66,65,88,70,52,29.80,29.64,29,8,29,0.00
2014-5-12,77,64,54,68,57,44,92,76,61,30.19,29.68,23,7,23,0.16
2014-5-13,66,56,47,44,40,35,73,56,37,30.36,30.19,23,6,23,0.00
2014-5-14,70,59,45,41,36,27,83,46,21,30.37,30.25,20,3,20,0.00
2014-5-15,72,53,42,44,41,38,89,66,30,30.30,30.19,11,1,14,0.00
2014-5-16,78,61,42,52,46,40,97,62,33,30.24,29.96,21,3,21,0.00
2014-5-17,72,61,51,55,49,42,86,66,50,30.19,30.04,22,3,22,0.00
2014-5-18,80,65,53,63,57,50,94,77,52,30.19,29.97,21,4,21,0.00
2014-5-19,85,74,65,63,61,58,79,63,45,30.00,29.83,21,9,34,0.00
2014-5-20,90,78,67,66,62,59,78,59,40,29.94,29.86,22,8,26,0.00
2014-5-21,89,78,70,69,64,62,78,62,45,30.06,29.90,17,6,23,0.00
2014-5-22,90,78,67,67,63,60,81,62,40,30.12,29.99,16,4,18,0.00
2014-5-23,83,72,66,67,64,60,95,77,48,30.11,30.02,17,2,17,0.14
2014-5-24,82,70,64,70,66,63,98,87,64,30.10,29.97,16,2,16,0.63
2014-5-25,82,73,66,71,66,63,96,81,56,30.05,29.96,20,2,20,0.04
2014-5-26,80,71,66,69,65,60,94,81,63,30.09,29.96,19,2,19,0.05
2014-5-27,68,66,63,66,64,61,96,93,88,30.01,29.93,11,2,11,0.59
2014-5-28,84,72,62,68,64,62,98,78,51,30.06,29.95,13,2,13,0.00
2014-5-29,89,76,62,68,65,60,98,71,46,30.01,29.88,13,1,13,0.00
2014-5-30,84,74,66,68,66,64,96,78,55,30.02,29.93,9,2,12,0.00
2014-5-31,86,74,67,70,67,66,97,81,55,30.08,29.94,12,1,12,0.08
2014-6-1,87,76,68,71,69,66,96,78,54,30.02,29.80,24,4,24,0.00
2014-6-2,91,78,66,73,69,63,97,76,51,30.04,29.82,26,4,26,0.31
2014-6-3,91,81,70,73,70,68,93,70,49,30.05,29.81,22,5,22,0.00
2014-6-4,95,84,73,75,70,68,87,66,45,29.85,29.72,22,6,22,0.00
2014-6-5,92,82,74,74,70,68,83,68,49,29.85,29.71,15,5,24,0.00
2014-6-6,85,77,67,74,70,64,94,79,57,30.05,29.82,20,3,20,0.52
2014-6-7,82,74,65,72,67,63,96,80,58,30.03,29.83,9,2,26,0.17
2014-6-8,74,70,66,69,66,63,97,89,78,30.04,29.89,15,2,15,1.65
2014-6-9,77,69,61,65,60,53,97,76,46,29.92,29.69,17,3,17,0.23
2014-6-10,80,70,62,64,61,58,94,76,50,29.93,29.74,20,4,20,0.01
2014-6-11,88,74,58,68,63,56,98,71,46,29.95,29.78,18,3,18,0.00
2014-6-12,82,74,64,69,66,62,97,76,59,30.06,29.75,28,4,28,0.95
2014-6-13,83,73,62,65,61,58,90,66,46,30.13,29.95,13,2,13,0.00
2014-6-14,89,78,69,73,68,61,86,71,45,29.97,29.75,22,6,28,0.00
2014-6-15,87,81,74,74,71,70,86,74,63,29.94,29.72,26,5,26,0.01
2014-6-16,90,82,74,75,71,68,87,71,54,29.97,29.86,28,7,28,0.00
2014-6-17,91,82,75,76,72,69,86,71,57,29.95,29.84,25,7,25,0.00
2014-6-18,90,82,75,75,71,69,80,70,55,29.95,29.88,24,7,24,0.00
2014-6-19,83,76,67,73,70,63,96,82,69,30.10,29.92,20,4,20,0.57
2014-6-20,89,79,70,74,69,61,88,71,50,30.14,30.01,16,3,16,0.03
2014-6-21,88,79,70,73,70,67,95,74,54,30.06,29.90,14,2,15,0.00
2014-6-22,85,78,72,74,70,67,90,76,59,29.95,29.82,19,4,19,0.00
2014-6-23,84,75,65,70,66,63,96,77,56,30.04,29.80,29,3,29,1.07
2014-6-24,86,76,66,72,68,62,96,78,56,30.10,29.98,18,2,18,0.00
2014-6-25,88,76,67,73,67,62,89,74,55,30.12,29.95,21,2,21,0.00
2014-6-26,84,77,71,74,71,68,92,82,66,30.03,29.86,17,4,17,0.00
2014-6-27,86,79,72,73,71,69,90,78,62,29.90,29.75,29,6,29,0.00
2014-6-28,85,80,70,75,72,65,93,78,70,29.93,29.82,15,5,24,0.02
2014-6-29,91,83,76,77,74,71,93,76,58,29.99,29.87,22,6,22,0.00
2014-6-30,92,84,76,75,71,67,84,66,48,29.91,29.77,26,7,26,0.00
2014-7-1,87,80,72,73,68,64,85,67,53,30.07,29.80,16,3,16,0.00
2014-7-2,86,77,69,69,64,58,82,65,43,30.22,30.04,16,2,16,0.00
2014-7-3,85,74,62,65,60,55,82,63,42,30.28,30.14,12,2,12,0.00
2014-7-4,88,77,63,72,66,59,93,72,55,30.29,30.16,19,3,19,0.00
2014-7-5,92,81,72,74,70,68,90,71,52,30.21,30.04,21,4,21,0.00
2014-7-6,94,84,73,74,70,67,86,64,44,30.07,29.91,19,4,19,0.00
2014-7-7,97,86,74,73,69,65,81,60,37,29.97,29.85,18,4,18,0.00
2014-7-8,97,85,76,73,68,64,67,56,39,30.05,29.88,15,2,15,0.00
2014-7-9,88,76,66,73,67,60,97,76,52,30.13,30.00,15,2,15,0.78
2014-7-10,92,79,72,76,72,68,92,78,52,30.09,29.94,18,4,18,0.03
2014-7-11,93,82,72,70,66,60,85,60,37,30.13,30.04,19,4,19,0.00
2014-7-12,95,84,71,71,63,54,77,51,26,30.17,30.03,13,3,20,0.00
2014-7-13,100,86,70,70,64,58,77,51,27,30.10,29.93,14,2,14,0.00
2014-7-14,93,82,76,75,71,66,81,69,47,30.09,29.94,12,1,12,0.00
2014-7-15,83,74,66,66,56,50,74,55,34,30.18,30.06,19,3,19,0.00
2014-7-16,70,65,61,62,58,54,92,80,63,30.18,30.03,16,2,16,0.36
2014-7-17,67,64,60,65,62,59,97,95,91,30.12,30.01,17,2,17,1.50
2014-7-18,70,65,62,63,62,60,97,89,76,30.14,30.08,8,1,8,0.01
2014-7-19,81,71,64,67,64,62,94,79,59,30.12,30.02,11,2,12,0.00
2014-7-20,90,76,64,76,69,62,92,78,61,30.08,29.95,17,4,17,0.00
2014-7-21,95,82,71,79,74,69,95,77,52,30.08,29.98,15,4,15,0.00
2014-7-22,97,84,74,78,74,72,92,74,48,30.12,30.04,13,2,13,0.00
2014-7-23,99,84,74,79,74,68,95,74,46,30.16,30.03,4,1,18,0.00
2014-7-24,93,81,70,76,71,67,90,73,55,30.10,29.98,4,2,11,0.00
2014-7-25,99,88,72,72,67,61,89,52,32,30.03,29.87,15,4,21,0.00
2014-7-26,101,88,76,72,69,66,75,55,35,29.97,29.87,16,3,16,0.00
2014-7-27,95,85,74,76,69,62,80,60,45,30.13,29.94,17,2,17,0.00
2014-7-28,86,79,72,68,65,61,84,63,43,30.29,30.12,10,2,10,0.00
2014-7-29,90,78,70,68,65,58,90,67,35,30.21,30.08,13,1,13,0.00
2014-7-30,74,70,67,70,68,65,97,93,74,30.13,29.96,15,2,15,1.29
2014-7-31,76,70,66,70,67,65,97,92,79,30.14,30.08,9,2,11,0.10
2014-8-1,84,74,64,70,67,63,98,80,56,30.16,30.08,9,1,9,0.00
2014-8-2,88,76,64,70,66,62,98,75,46,30.19,30.10,11,1,11,0.00
2014-8-3,90,77,64,70,66,63,98,73,47,30.20,30.09,11,1,11,0.00
2014-8-4,91,78,64,71,67,63,98,72,44,30.16,30.05,11,1,11,0.00
2014-8-5,91,78,65,71,67,64,97,71,42,30.15,30.03,12,2,12,0.00
2014-8-6,93,82,74,73,71,68,90,70,49,30.06,29.88,17,3,17,0.00
2014-8-7,96,84,75,76,72,69,88,68,46,29.95,29.82,15,3,15,0.00
2014-8-8,92,82,73,78,74,68,95,78,58,29.98,29.86,19,2,19,0.00
2014-8-9,93,81,74,78,74,68,96,80,57,30.03,29.94,18,2,18,0.18
2014-8-10,94,82,71,76,72,68,94,73,50,30.08,29.98,14,2,14,0.00
2014-8-11,91,81,71,70,68,61,92,66,46,30.15,30.05,15,2,15,0.00
2014-8-12,87,75,64,64,60,57,86,62,41,30.20,30.07,11,2,11,0.00
2014-8-13,90,76,63,67,63,60,94,67,40,30.19,30.05,12,2,12,0.00
2014-8-14,93,80,65,68,65,61,89,62,42,30.11,29.97,16,3,16,0.00
2014-8-15,96,83,68,71,67,64,86,60,39,30.03,29.87,18,4,18,0.00
2014-8-16,90,81,76,77,71,68,89,71,49,29.93,29.85,16,3,16,0.02
2014-8-18,98,83,69,67,64,56,90,55,33,30.02,29.82,25,5,25,1.33
2014-8-19,94,83,69,72,68,58,89,62,47,29.96,29.83,17,3,17,0.03
2014-8-20,94,84,74,71,68,64,82,61,39,29.95,29.86,17,5,20,0.00
2014-8-21,96,86,77,74,72,69,81,63,46,30.00,29.90,18,5,18,0.00
2014-8-22,99,88,78,73,68,64,71,54,35,30.01,29.89,20,4,21,0.00
2014-8-23,99,86,74,68,63,57,76,49,29,29.99,29.86,19,4,19,0.00
2014-8-24,98,86,75,70,67,61,78,54,34,29.95,29.86,17,3,17,0.00
2014-8-25,101,86,71,71,68,66,86,58,32,30.01,29.89,9,2,13,0.00
2014-8-26,98,84,71,75,70,65,90,64,37,30.11,29.99,14,2,14,0.00
2014-8-27,95,82,69,73,69,67,94,67,42,30.13,29.98,15,2,15,0.00
2014-8-28,94,80,70,68,66,63,85,64,39,30.03,29.87,15,2,15,0.00
2014-8-29,83,75,67,70,67,64,93,77,59,29.98,29.86,15,2,15,0.02
2014-8-30,96,81,67,73,66,56,97,65,31,30.00,29.89,11,1,11,0.00
2014-8-31,97,84,73,73,69,67,86,63,39,29.96,29.78,24,5,24,0.00
2014-9-1,96,86,77,74,72,69,81,65,46,29.90,29.78,22,6,28,0.00
2014-9-2,90,81,76,74,71,68,85,71,57,30.03,29.83,22,5,23,0.00
2014-9-3,96,84,73,74,70,66,88,64,42,29.99,29.88,18,4,20,0.00
2014-9-4,96,86,76,70,66,61,73,54,32,30.03,29.92,23,5,23,0.00
2014-9-5,95,81,68,74,68,62,87,67,40,30.17,29.99,26,3,26,0.32
2014-9-6,68,64,62,63,62,60,96,92,83,30.27,30.16,20,3,20,0.71
2014-9-7,83,71,59,67,62,58,97,76,51,30.25,30.06,9,1,13,0.01
2014-9-8,89,78,67,72,69,65,97,77,54,30.11,29.93,14,2,16,0.00
2014-9-9,95,84,75,72,70,67,84,64,43,29.97,29.72,25,5,25,0.00
2014-9-10,89,80,69,73,68,62,86,68,51,29.99,29.71,16,5,21,0.08
2014-9-11,72,67,63,63,61,59,89,81,70,30.19,29.99,11,4,16,0.00
2014-9-12,65,57,53,59,54,48,94,88,80,30.46,30.16,19,5,19,0.15
2014-9-13,66,56,48,53,49,45,90,78,59,30.47,30.30,15,3,16,0.00
2014-9-14,58,56,55,56,53,52,93,91,85,30.33,30.30,4,0,4,0.00